Theta_e
361 361 360 361 358 357 356 350 350 349 346 347 347 347 346 344 340 338 334 334 331 327 328 326 323 323 323 325 324 325 323 326 325 327 323 325 325 323 322 324 325 325 327
362 361 362 361 358 356 354 350 350 349 350 349 348 346 342 340 336 334 333 329 325 326 324 320 316 313 320 320 318 316 319 319 320 326 322 325 322 320 323 321 321 321 321
362 363 364 362 359 356 354 353 351 352 350 349 347 344 341 335 333 332 329 325 325 324 315 314 313 313 316 315 315 315 315 312 315 320 319 320 317 316 315 314 318 319 320
363 362 364 361 361 357 352 349 348 348 348 348 344 342 333 331 330 325 324 325 324 322 317 312 315 318 317 316 316 316 315 315 314 318 317 319 315 315 314 316 317 317 319
359 360 363 362 359 356 351 350 347 346 344 345 341 333 332 329 324 325 325 323 321 320 318 312 316 318 319 320 320 317 316 315 315 315 316 317 317 317 315 316 317 317 317
359 359 362 358 358 354 351 347 335 337 342 342 334 330 324 318 325 324 324 322 321 320 318 316 312 311 314 318 319 320 320 317 316 315 317 315 315 316 316 315 316 317 317
360 360 359 358 352 350 347 341 337 341 341 336 331 324 314 319 323 323 320 318 318 318 317 317 313 312 313 313 312 313 316 319 318 316 315 315 315 315 316 315 315 317 317
362 362 356 352 346 343 341 339 340 341 339 335 329 318 312 319 321 321 320 319 318 318 314 314 317 317 315 314 313 313 313 314 318 319 317 315 314 315 316 318 315 316 316
360 356 353 350 347 344 342 341 340 337 333 328 324 314 314 317 318 320 320 318 317 317 315 316 317 317 317 315 314 314 314 316 316 316 317 317 318 318 318 319 316 315 316
357 355 352 348 346 343 341 339 335 332 330 327 321 312 314 314 317 318 319 321 321 321 321 321 320 318 316 316 315 315 315 317 317 317 318 319 320 318 316 316 316 315 316
354 351 350 348 345 343 339 338 336 332 329 325 320 310 310 312 314 315 317 318 315 316 317 318 319 317 316 315 316 316 316 317 318 317 317 317 320 321 318 317 317 316 316
354 351 349 346 343 341 341 339 336 331 327 324 319 316 311 309 310 311 312 311 311 314 316 316 318 317 315 314 316 318 319 319 319 318 317 318 320 315 314 313 314 315 317
352 349 348 345 342 341 340 337 334 329 326 323 319 320 319 314 310 309 309 310 312 313 316 317 317 313 315 318 320 321 321 321 319 319 319 319 313 312 313 314 315 315 316
351 348 346 343 342 340 338 336 329 326 325 323 320 322 321 320 314 311 312 313 314 317 317 316 312 313 316 319 320 322 319 314 316 317 312 311 312 313 312 311 312 312 313
350 347 343 342 340 338 336 332 329 328 324 323 321 321 323 320 319 319 317 316 318 314 313 313 313 313 316 319 321 317 314 312 311 310 310 311 310 309 310 311 312 313 314
346 344 341 340 338 337 335 333 332 327 325 324 322 321 321 321 319 320 318 316 312 312 312 313 313 313 314 320 317 313 311 310 310 309 310 308 309 312 312 311 312 312 312
345 343 341 340 338 335 327 323 315 314 315 318 318 318 318 318 316 315 314 312 312 312 313 313 316 321 320 320 312 311 310 309 308 307 307 309 307 304 305 305 306 309 310
344 342 340 341 339 335 327 321 319 315 313 313 314 315 314 314 314 312 312 313 313 313 313 317 319 321 318 313 310 310 308 307 306 306 306 304 302 302 302 302 303 305 308
342 341 340 341 337 332 328 324 322 319 316 313 313 312 312 312 312 312 312 313 312 313 313 313 317 319 314 311 309 308 307 306 305 305 304 303 301 299 299 302 301 301 301
343 342 339 337 332 328 325 322 320 316 316 316 316 316 316 314 313 314 313 313 312 313 315 317 319 316 312 309 308 307 306 306 305 305 303 302 301 300 299 299 299 299 301
339 337 333 332 326 324 322 320 318 318 319 321 320 319 319 318 317 317 318 319 319 319 319 321 316 313 310 308 307 307 306 306 306 304 303 302 300 298 298 298 298 299 301
333 332 324 322 322 322 322 321 320 322 321 320 320 320 321 320 319 320 319 319 319 319 320 316 314 312 310 308 307 307 307 307 306 304 303 301 297 296 296 296 298 299 300
326 323 324 325 323 322 321 322 323 322 321 321 322 321 320 320 319 320 320 319 318 320 317 315 314 311 309 308 307 307 307 307 305 303 301 299 297 296 295 296 297 298 301
325 325 326 325 325 323 322 322 322 322 321 320 320 319 318 318 320 320 320 320 320 319 317 316 313 311 309 308 307 307 307 306 305 303 300 297 296 295 295 297 300 301 302
326 327 325 324 322 322 322 322 321 321 320 319 319 321 320 320 321 321 321 321 320 319 318 315 313 310 309 308 308 307 307 305 304 301 299 296 295 296 300 301 302 303 304
323 324 323 323 322 322 322 322 321 321 322 320 321 321 321 321 320 320 319 319 320 320 318 316 313 309 308 308 307 307 306 305 303 300 297 296 296 300 302 303 303 304 305
Wind_Speed
28 29 24 25 24 14 20 23 26 27 22 20 15 13 11 9 6 10 12 10 10 11 10 11 13 12 13 17 17 18 17 16 8 11 18 17 21 23 22 17 15 16 14
29 28 24 22 22 21 19 30 31 26 22 18 14 12 11 7 7 8 12 10 10 12 11 13 16 15 17 17 17 18 18 20 16 10 17 21 22 22 19 20 19 17 18
28 28 25 26 27 26 23 25 25 25 19 14 12 13 11 10 10 9 9 10 11 12 13 14 16 19 18 19 17 21 21 20 16 16 17 20 23 24 23 22 19 18 18
31 30 27 26 25 22 21 24 19 19 20 16 9 10 10 11 9 9 12 11 12 12 14 16 14 16 18 17 17 16 17 21 22 18 18 16 20 22 25 24 26 28 19
33 31 25 17 20 14 16 17 13 18 15 10 13 10 12 10 10 12 13 12 12 10 13 17 14 12 12 13 13 13 12 14 17 17 16 15 15 18 22 21 22 23 18
33 29 21 15 15 17 23 26 25 25 19 13 13 14 10 13 13 14 14 14 12 12 12 13 15 17 14 11 12 13 14 12 12 13 9 12 16 17 18 19 18 13 8
30 24 18 19 20 27 28 25 17 24 20 18 15 12 11 16 14 14 12 13 12 10 10 9 8 12 15 15 15 12 10 10 8 11 14 17 18 18 17 18 16 15 13
23 23 20 24 28 27 24 22 26 24 22 19 15 12 17 18 17 17 14 11 10 7 6 5 5 7 11 15 17 16 14 12 11 13 19 19 18 21 21 20 16 15 14
25 26 26 26 27 26 26 26 25 23 20 17 14 14 19 19 16 14 10 7 6 3 3 3 1 4 9 13 19 19 17 16 17 17 15 14 17 15 16 15 16 13 13
25 22 22 25 25 24 24 26 25 22 20 17 14 14 18 19 15 11 8 2 6 6 9 8 5 8 9 17 20 18 20 21 22 21 16 15 15 13 12 13 14 18 18
21 23 25 25 27 24 23 23 22 20 17 15 13 15 16 14 11 8 5 6 5 4 6 7 0 9 14 19 20 24 25 24 23 24 25 23 21 20 18 15 11 17 22
24 25 25 25 24 25 26 24 20 20 21 20 17 15 12 12 9 7 5 2 3 3 3 2 7 14 19 24 24 24 20 21 23 22 22 22 24 12 18 19 19 20 23
26 27 27 25 25 25 25 23 22 24 22 20 17 15 13 11 10 8 6 5 3 3 6 8 13 19 20 18 21 23 20 17 15 16 18 19 19 24 21 19 20 22 24
29 25 25 26 27 25 23 22 24 21 21 18 17 17 17 13 12 11 9 8 5 7 9 11 16 19 17 18 23 23 12 14 12 12 14 21 21 21 20 22 23 23 24
28 27 27 28 24 22 20 18 19 18 18 19 19 18 19 20 17 14 13 9 8 8 10 15 19 21 20 20 18 10 13 14 15 17 19 19 21 24 25 23 25 26 21
27 24 24 24 23 22 21 18 16 16 19 17 14 15 13 19 13 13 11 12 10 8 12 17 23 25 25 21 9 13 14 15 16 19 17 21 24 24 23 22 21 21 16
29 28 28 24 23 22 20 20 20 14 14 14 15 14 12 13 12 10 10 9 9 11 13 17 15 14 18 9 9 10 10 12 16 16 19 18 17 20 20 21 23 23 22
31 29 30 25 25 26 24 21 21 20 17 14 13 10 6 8 9 8 9 10 12 12 12 13 11 10 1 6 10 10 10 13 16 16 15 14 18 21 24 24 24 23 23
30 30 30 28 29 27 26 23 19 16 14 13 13 13 13 13 12 14 15 17 16 16 17 18 13 7 6 12 9 8 10 13 15 16 9 15 20 27 25 23 23 24 24
30 29 28 26 26 26 25 22 23 19 16 15 16 18 19 16 17 19 19 19 19 21 19 14 12 4 7 9 7 9 13 14 16 10 13 18 25 28 22 24 25 24 23
28 25 19 16 23 22 21 18 22 19 19 21 25 23 23 25 24 19 16 17 17 16 14 9 4 4 6 7 8 12 13 12 13 11 17 24 28 23 22 24 23 23 24
20 19 20 22 18 16 17 16 16 19 17 20 22 23 20 24 21 15 10 10 8 5 9 8 3 5 6 9 10 13 11 13 12 15 21 27 22 22 23 21 21 24 25
19 23 19 16 17 19 18 14 12 13 17 13 15 24 25 23 14 10 8 4 5 4 9 4 4 5 7 9 10 9 13 14 12 18 24 23 23 21 21 21 22 23 23
22 21 19 19 17 18 14 12 10 14 8 2 13 20 25 20 13 6 4 4 5 5 6 7 8 6 6 7 9 13 15 11 16 21 23 22 21 22 22 20 19 22 25
15 23 23 18 21 17 14 15 13 13 12 8 5 14 16 15 10 6 5 5 4 6 8 7 6 6 6 8 11 13 11 14 19 24 23 20 21 20 16 18 23 27 29
5 20 15 20 21 18 15 10 16 13 11 19 12 20 18 13 7 5 4 5 6 7 8 8 6 6 7 10 11 11 14 18 22 23 20 20 20 15 18 24 27 25 26
Wind_Direction
187 193 195 195 196 187 188 173 169 165 155 153 153 151 146 126 105 100 90 93 77 67 64 47 49 41 42 43 39 37 29 30 13 353 12 26 32 27 18 6 9 11 12
184 190 192 198 190 187 172 166 165 159 158 159 158 150 124 113 105 116 102 91 80 88 62 60 58 58 65 55 46 40 38 35 28 343 13 33 24 22 18 12 13 8 7
182 187 193 196 189 194 181 166 160 157 147 139 150 137 126 119 121 114 107 97 98 88 75 75 69 67 64 55 53 47 44 38 33 38 25 22 15 15 9 12 22 14 10
181 186 197 197 193 200 177 188 182 167 140 142 135 128 125 124 119 112 113 106 105 88 74 62 64 62 60 53 45 41 37 35 34 36 24 20 20 22 22 17 18 15 27
179 186 197 183 196 202 169 155 92 85 111 149 142 145 145 143 133 123 116 109 104 96 84 67 62 62 57 42 28 26 27 34 33 28 16 9 8 4 9 11 10 6 21
173 183 182 190 182 171 162 145 123 145 170 162 155 169 161 150 141 130 130 124 119 99 117 80 62 60 57 49 41 36 18 11 20 15 356 357 348 347 346 359 4 6 348
173 173 173 171 160 153 152 146 145 158 150 156 166 173 158 143 139 130 125 114 116 116 113 104 74 56 44 35 30 24 16 3 342 350 346 330 323 326 325 329 344 353 350
153 152 155 145 144 146 149 145 151 162 164 165 171 169 154 142 138 142 135 135 130 128 126 113 75 46 25 14 7 4 5 3 341 329 329 324 315 317 307 308 305 319 329
146 145 146 146 144 147 148 154 160 158 156 164 166 160 155 148 146 140 136 139 145 126 188 183 148 352 343 359 358 350 343 346 345 346 343 331 332 328 330 299 275 289 301
154 156 157 157 157 160 160 156 157 156 159 163 159 157 159 156 159 159 147 95 210 283 287 267 268 293 326 345 343 333 323 326 325 326 330 331 324 311 338 314 273 250 265
165 163 162 165 162 162 157 154 154 156 158 159 154 158 166 168 170 162 126 100 103 67 63 56 131 329 331 328 322 313 307 312 312 310 312 317 323 308 317 310 283 258 256
166 165 160 162 159 157 156 158 158 160 160 160 162 163 171 171 175 175 184 148 93 47 7 354 324 321 321 321 320 322 322 315 308 305 311 314 325 350 339 328 315 303 286
156 157 157 158 159 163 159 159 162 165 165 166 167 170 176 182 185 186 186 183 205 267 297 305 316 327 331 330 332 319 329 333 326 317 316 323 331 333 331 329 332 327 311
150 146 148 152 153 156 162 170 165 166 169 175 184 189 197 192 189 186 193 205 232 267 285 305 318 327 329 332 331 337 17 15 8 352 341 339 339 344 345 334 326 323 319
143 146 148 156 150 147 154 167 181 185 187 184 196 200 204 205 210 208 213 222 219 262 284 304 315 326 325 330 339 20 10 3 358 351 344 343 343 334 328 331 325 320 321
140 144 147 148 150 156 168 178 189 201 203 208 216 222 233 200 184 203 204 213 239 266 293 308 316 325 319 324 3 8 1 353 349 345 345 341 334 337 342 350 347 344 352
144 148 153 153 157 161 165 166 147 138 142 150 151 148 153 165 176 192 214 239 263 280 293 308 324 339 330 328 1 357 353 351 348 348 347 353 10 359 356 349 346 342 329
160 162 159 162 169 173 184 179 176 171 170 165 169 176 214 231 222 235 245 257 263 267 287 299 304 315 9 339 354 359 355 354 353 354 355 7 1 357 349 343 339 337 337
168 169 171 176 178 183 183 185 186 185 194 192 195 205 211 221 227 234 241 250 263 274 280 282 293 307 340 351 354 3 360 357 354 348 1 351 351 347 338 336 335 331 330
177 172 173 180 186 187 181 181 182 187 187 186 198 199 206 213 224 233 244 251 257 267 276 282 290 286 337 341 343 349 349 349 344 343 339 339 338 339 330 329 327 324 321
167 173 175 195 181 175 175 174 184 191 202 200 209 223 224 216 226 237 254 260 258 260 268 257 201 279 314 320 328 341 342 339 332 323 332 333 333 332 328 325 323 324 320
169 173 171 164 166 179 185 201 210 197 214 224 231 236 227 208 223 236 190 148 163 235 232 196 230 273 305 315 325 334 328 321 314 322 329 331 328 326 325 322 320 318 315
166 164 174 179 189 196 203 203 196 218 241 261 237 206 193 206 219 187 174 214 273 267 190 239 270 268 301 310 318 316 315 312 315 327 330 326 323 325 325 318 314 313 315
181 182 194 202 206 177 175 198 231 240 220 251 183 193 199 195 181 169 193 203 266 250 224 273 272 280 298 298 306 311 308 302 322 328 329 324 323 325 321 317 314 314 313
185 200 201 188 166 170 190 217 228 230 221 211 216 177 171 163 172 178 204 249 290 219 266 249 274 286 285 294 304 304 301 317 328 332 329 326 324 324 320 316 316 316 311
248 178 181 177 174 183 207 221 230 245 227 207 202 167 156 155 170 210 249 273 270 267 255 276 259 268 278 302 309 307 320 329 331 330 328 327 326 322 322 321 319 317 312